AirNav   Pilot Hours Calculator
 
 623 users online  

2I3 Rough River State Park Airport
Falls of Rough, Kentucky, USA

GOING TO FALLS OF ROUGH?


FAA INFORMATION EFFECTIVE 03 DECEMBER 2020

Location

FAA Identifier: 2I3
Lat/Long: 37-36-35.3000N 086-30-25.8000W
37-36.588333N 086-30.430000W
37.6098056,-86.5071667
(estimated)
Elevation: 577 ft. / 175.9 m (surveyed)
Variation: 01W (1985)
From city: 3 miles NE of FALLS-OF-ROUGH, KY
Time zone: UTC -6 (UTC -5 during Daylight Saving Time)
Zip code: 40119

Airport Operations

Airport use: Open to the public
Activation date: 05/1963
Control tower: no
ARTCC: INDIANAPOLIS CENTER
FSS: LOUISVILLE FLIGHT SERVICE STATION
NOTAMs facility: LOU (NOTAM-D service available)
Attendance: UNATNDD
Wind indicator: lighted
Segmented circle: yes
Lights: ACTVT MIRL RY 2/20; REIL RY 2 & 20 - CTAF. PAPI RY 2 & 20 OPER CONTINUOUSLY.
Beacon: white-green (lighted land airport)
Operates sunset to sunrise.

Airport Communications

CTAF/UNICOM: 122.8
WX AWOS-3PT at JQD (19 nm SW): 132.1 (270-298-7936)

Nearby radio navigation aids

VOR radial/distance  VOR name  Freq  Var
MYSr217/(21.1)MYSTIC VOR108.2001W
FTKr236/31.0FORT KNOX VOR/DME109.6001W
OWBr108/32.3OWENSBORO VOR/DME108.6004W
EWOr267/39.5NEW HOPE VOR/DME110.8001E

 
NDB name  Hdg/Dist  Freq  Var  ID
GODMAN233/32.739603WGOI --. --- ..

Airport Services

Parking: tiedowns
Airframe service: NONE
Powerplant service: NONE
Bottled oxygen: NONE
Bulk oxygen: NONE

Runway Information

Runway 2/20

Dimensions: 3200 x 75 ft. / 975 x 23 m
Surface: asphalt, in good condition
Weight bearing capacity: 
Single wheel: 8.0
Runway edge lights: medium intensity
RUNWAY 2  RUNWAY 20
Latitude: 37-36.336833N37-36.841000N
Longitude: 086-30.527167W086-30.332667W
Traffic pattern: leftleft
Markings: basic, in good conditionbasic, in good condition
Visual slope indicator: 2-light PAPI on left (4.00 degrees glide path)4-light PAPI on left (5.00 degrees glide path)
Runway end identifier lights: yesyes
Obstructions: none44 ft. trees, 878 ft. from runway, 144 ft. left of centerline, 15:1 slope to clear

Airport Ownership and Management from official FAA records

Ownership: Publicly-owned
Owner: KY DEPT OF PARKS
2 HUDSON HOLLOW UNIT 1
FRANKFORT, KY 40601
Phone (502) 892-3367
Manager: MICHAEL RICKS, PARK MANAGER
450 LODGE ROAD
FALLS OF ROUGH, KY 40119
Phone 270-257-2311

Airport Operational Statistics

Aircraft operations: avg 25/day *
78% transient general aviation
13% local general aviation
7% military
2% air taxi
* for 12-month period ending 04 December 2019

Additional Remarks

TRANSPORTATION TO PARK LODGE AVAIL 270-257-2311.
FOR CD CTC INDIANAPOLIS ARTCC AT 317-247-2411.

Instrument Procedures

There are no published instrument procedures at 2I3.

Some nearby airports with instrument procedures:

I93 - Breckinridge County Airport (11 nm N)
M20 - Leitchfield-Grayson County Airport (17 nm SE)
KJQD - Ohio County Airport (19 nm SW)
KTEL - Perry County Municipal Airport (26 nm N)
KY8 - Hancock County Airport-Ron Lewis Field (26 nm NW)
 
Loc | Ops | Rwys | IFR | FBO | Links
Com | Nav | Svcs | Stats | Notes
Area around 2I3 (Rough River State Park Airport)
 
Road maps at: MapQuest Bing Google
 
Aerial photo
WARNING: Photo may not be current or correct
Aerial photo of 2I3 (Rough River State Park Airport)
Taken in December 2006

Do you have a better or more recent aerial photo of Rough River State Park Airport that you would like to share? If so, please send us your photo.

 
Sectional chart

 
Airport distance calculator
Flying to Rough River State Park Airport? Find the distance to fly.

From to 2I3

Sunrise and sunset
Times for 03-Dec-2020
 Local
(UTC-6)
 Zulu
(UTC)
Morning civil twilight06:1712:17
Sunrise06:4612:46
Sunset16:2722:27
Evening civil twilight16:5522:55

Current date and time
Zulu (UTC)  04-Dec-2020 05:16:27
Local (UTC-6)  03-Dec-2020 23:16:27
 
METAR
KKY8 
26nm NW 
040455Z AUTO 00000KT 10SM OVC030 05/03 A3014 RMK A01
KFTK 
30nm NE 
040456Z AUTO 00000KT 10SM OVC034 04/04 A3013 RMK AO2 SLP211 T00370036 400671049
KEKX 
31nm E 
040455Z AUTO 00000KT 10SM OVC035 05/02 A3013 RMK AO2 T00490022
KOWB 
32nm W 
040456Z AUTO 13003KT 10SM BKN028 OVC035 05/03 A3013 RMK AO2 SLP207 T00500033
KM21 
39nm SW 
040455Z AUTO 00000KT 10SM OVC032 05/01 A3013 RMK AO2 T00510010
KBWG 
39nm S 
040453Z AUTO 20008KT 10SM OVC024 08/04 A3016 RMK AO2 SLP216 T00780044
KGLW 
44nm SE 
040455Z AUTO 20005KT 10SM OVC025 07/04 A3015 RMK AO2 T00650035
KHNB 
44nm NW 
040456Z AUTO 15004KT 10SM OVC033 03/01 A3014 RMK AO2 SLP208 T00330011
K2I0 
45nm W 
040455Z AUTO 00000KT 10SM OVC029 06/03 A3013 RMK AO2 T00610028
KI19 
46nm NW 
040455Z AUTO 22004KT 10SM OVC070 03/M01 A3012 RMK AO2 T00251012
TAF
KFTK 
30nm NE 
032000Z 0320/0502 VRB05KT 9999 BKN100 OVC250 QNH3005INS BECMG 0409/0410 18006KT 9999 VCSH BKN015 OVC030 QNH2998INS BECMG 0411/0412 20005KT 8000 -SHRA OVC005 QNH2992INS BECMG 0421/0422 23005KT 9999 NSW BKN015 OVC025 QNH2996INS TX07/0320Z TN04/0409Z LAST NO AMDS AFT 0404 NEXT 0412
KOWB 
32nm W 
040336Z 0404/0424 VRB03KT P6SM OVC025 TEMPO 0404/0406 5SM -DZ BR FM040600 00000KT P6SM VCSH OVC025 FM041000 00000KT P6SM OVC015 FM041500 28008KT P6SM OVC015 FM042300 25007KT P6SM BKN050
NOTAMs
Click for the latest NOTAMs
NOTAMs are issued by the DoD/FAA and will open in a separate window not controlled by AirNav.

 

 
 

Would you like to see your business listed on this page?

 If your business provides an interesting product or service to pilots, flight crews, aircraft, or users of the Rough River State Park Airport, you should consider listing it here.  To start the listing process, click on the button below
 
Add a business
 

Other Pages about Rough River State Park Airport

Update a link
 
Copyright © AirNav, LLC. All rights reserved. Privacy Policy  Contact